Starlink 30997

operational
NORAD ID: 58482 Int'l Des: 2023-186 Owner: SPXS Country: US Constellation: starlink
LEOCIRCULAR

关于 Starlink 30997

正在加载描述...

实时位置

正在加载3D地球...

即将过境

高度历史

Altitude vs Time

uPlot chart will show altitude changes over time

两行轨道根数

1 58482U 23186K 25258.58241215 .00000497 00000-0 51853-4 0 9993
2 58482 43.0023 298.6635 0001370 275.8514 84.2172 15.02537142 99511
Epoch: Sep 15, 2025 • Age: 27 hours

当前状态

高度 559.9 km
速度 7.59 km/s
星下点 28.31°N, 72.21°E
发射日期 Dec 3, 2023
运行时间 1.7 years
类型 internet

技术详情

分类 Payload
质量 730.00 kg
干质量 700.00 kg
总质量 730.00 kg
长度 0.30 m
直径 4.10 m
跨度 29.00 m
形状 Box + pan
制造商 SPXS
平台类型 Starlink V2M
阶段状态 In Orbit
所有者/国家 SPXS/US

大型星座

Loading constellations...